Tracking 21612 objects as of 20-Oct-2020
HD Live streaming from Space Station
objects crossing your sky now

COSMOS 994

Track COSMOS 994 now!
10-day predictions
COSMOS 994 is classified as:


NORAD ID: 10731
Int'l Code: 1978-028A
Perigee: 979.1 km
Apogee: 1,011.3 km
Inclination: 82.9 °
Period: 104.9 minutes
Semi major axis: 7366 km
RCS: 2.0708 m2 (large)
Launch date: March 15, 1978
Source: Commonwealth of Independent States (former USSR) (CIS)
Launch site: PLESETSK MISSILE AND SPACE COMPLEX (PKMTR)
aabbcc
Your satellite tracking list
Your tracking list is empty




NASA's NSSDC Master Catalog

Two Line Element Set (TLE):
1 10731U 78028A   20293.04274582  .00000011  00000-0 -43181-5 0  9990
2 10731  82.9277 104.1271 0021846 254.1520 224.6392 13.73216608134367
Source of the keplerian elements: AFSPC